sat.trackr.live / text

‹ back to catalog

STARLINK-2408

NORAD 47823 · 2021-018AN

PAYLOAD ACTIVE UNKNOWN

§ Identity

Operator
Country
US
Launch date
2021-03-11
Launch site
AFETR
Launch vehicle
Mass (kg)
RCS (m²)

Purposes: comms

External: N2YO · Heavens-Above · Gunter

§ Orbital elements

Epoch: 2026-05-25T00:43:29.813088Z

Period
94.01 min
Inclination
53.1585°
Eccentricity
0.0001741
Mean motion
15.31706387 rev/d
Perigee alt
469.5 km
Apogee alt
471.9 km
Semi-major
6,848.9 km
B*
2.1165e-4
RAAN
262.9918°
Arg perigee
79.5358°
Mean anomaly
280.5840°
Rev number
28,819

§ Raw data

STARLINK-24081 47823U 21018AN  26145.03020617  .00006209  00000+0  21165-3 0  99972 47823  53.1585 262.9918 0001741  79.5358 280.5840 15.31706387288196

JSON: /api/v1/satellites/47823 · /tle

For live sub-satellite position, see the globe view (requires WebGL).

§ Visibility from observer

Set your observer location to see the next 7 days of passes ≥ 10°. The values pass through the URL so the page stays shareable.

No JS? Fill the form by hand. The geolocation button needs JavaScript.